Weather History for Truth Or Consequences, NM

Change the Weather History Date:

Sunday, October 30, 2011

  Actual Average Record
Temperature  
Mean Temperature 58 °F -  
Max Temperature 73 °F 70 °F 84 °F (2010)
Min Temperature 42 °F 42 °F 34 °F (1996)
Degree Days  
Heating Degree Days 7    
Month to date heating degree days 101  
Since 1 July heating degree days 101  
Cooling Degree Days 0    
Month to date cooling degree days 41  
Year to date cooling degree days 2138  
Growing Degree Days 8 (Base 50)    
Moisture  
Dew Point 22 °F    
Average Humidity 28    
Maximum Humidity 41    
Minimum Humidity 14    
Precipitation  
Precipitation 0.00 in - 0.32 in (1998)
Month to date precipitation 0.62  
Year to date precipitation 5.04  
Sea Level Pressure  
Sea Level Pressure 30.07 in    
Wind  
Wind Speed 6 mph (North)    
Max Wind Speed 12 mph    
Max Gust Speed 15 mph    
Visibility 10 miles    
Events      
T = Trace of Precipitation, MM = Missing Value Source: NWS Daily Summary

Daily Weather History Graph

Daily Weather History Graph

Search for Another Location

Airport:

Trip Planner

Search our weather history database for the weather conditions in past years. The results will help you decide how hot, cold, wet, or windy it might be!

Date:

Astronomy

Oct. 30, 2011 Rise Set
Actual Time 7:25 AM MDT 6:19 PM MDT
Civil Twilight 7:00 AM MDT 6:44 PM MDT
Nautical Twilight 6:30 AM MDT 7:14 PM MDT
Astronomical Twilight 6:01 AM MDT 7:43 PM MDT
Moon 11:38 AM MDT (10/30) 9:59 PM MDT (10/30)
Length of Visible Light 11h 44m
Length of Day
10h 53m
Waxing Crescent, 20% of the Moon is Illuminated
Oct 30
Waxing Crescent
Nov 2
First Quarter
Nov 10
Full
Nov 18
Last Quarter
Nov 24
New

Hourly Weather History & Observations

Time (MDT) Temp. Windchill Dew Point Humidity Pressure Visibility Wind Dir Wind Speed Gust Speed Precip Events Conditions
12:53 AM 51.1 °F - 28.9 °F 43% 30.00 in 10.0 mi North 3.5 mph - N/A   Clear
1:53 AM 48.9 °F - 25.0 °F 39% 30.01 in 10.0 mi North 6.9 mph - N/A   Clear
2:53 AM 48.0 °F - 25.0 °F 41% 30.01 in 10.0 mi NNW 3.5 mph - N/A   Clear
3:53 AM 50.0 °F - 26.1 °F 39% 30.01 in 10.0 mi NW 6.9 mph - N/A   Clear
4:53 AM 45.0 °F 41.8 °F 23.0 °F 42% 30.03 in 10.0 mi West 5.8 mph - N/A   Clear
5:53 AM 48.9 °F - 23.0 °F 36% 30.05 in 10.0 mi NNW 4.6 mph - N/A   Clear
6:53 AM 46.9 °F - 23.0 °F 39% 30.09 in 10.0 mi NNW 5.8 mph - N/A   Clear
7:53 AM 46.0 °F 43.9 °F 23.0 °F 40% 30.11 in 10.0 mi WNW 4.6 mph - N/A   Clear
8:53 AM 53.1 °F - 25.0 °F 34% 30.12 in 10.0 mi Calm Calm - N/A   Clear
9:53 AM 57.9 °F - 21.9 °F 25% 30.14 in 10.0 mi North 5.8 mph - N/A   Clear
10:53 AM 60.1 °F - 21.0 °F 22% 30.14 in 10.0 mi NNE 8.1 mph - N/A   Clear
11:53 AM 63.0 °F - 19.9 °F 19% 30.13 in 10.0 mi Variable 4.6 mph - N/A   Clear
12:53 PM 66.9 °F - 21.0 °F 17% 30.09 in 10.0 mi ENE 8.1 mph - N/A   Clear
1:53 PM 70.0 °F - 19.9 °F 15% 30.05 in 10.0 mi ENE 8.1 mph - N/A   Clear
2:53 PM 71.1 °F - 21.0 °F 15% 30.02 in 10.0 mi ESE 5.8 mph - N/A   Clear
3:53 PM 72.0 °F - 21.0 °F 15% 30.01 in 10.0 mi SE 6.9 mph - N/A   Clear
4:53 PM 72.0 °F - 19.9 °F 14% 30.02 in 10.0 mi Variable 3.5 mph - N/A   Clear
5:53 PM 70.0 °F - 19.9 °F 15% 30.03 in 10.0 mi Calm Calm - N/A   Clear
6:53 PM 64.0 °F - 21.0 °F 19% 30.06 in 10.0 mi East 3.5 mph - N/A   Clear
7:53 PM 60.1 °F - 19.0 °F 20% 30.10 in 10.0 mi North 5.8 mph - N/A   Clear
8:53 PM 61.0 °F - 19.0 °F 20% 30.10 in 10.0 mi North 5.8 mph - N/A   Clear
9:53 PM 53.1 °F - 18.0 °F 25% 30.11 in 10.0 mi NW 6.9 mph - N/A   Clear
10:53 PM 50.0 °F - 19.0 °F 29% 30.13 in 10.0 mi NW 8.1 mph - N/A   Clear
11:53 PM 50.0 °F - 19.0 °F 29% 30.11 in 10.0 mi NW 8.1 mph - N/A   Clear